Lapse_Rate
5.7 5.8 5.9 6.0 6.2 6.3 6.6 7.6 8.1 8.6 8.5 8.1 7.7 8.5 9.4 9.5 9.5 7.2 5.7 6.5 5.9 3.9 5.2 6.0 6.7 4.2 5.5 3.8 6.5 3.8 5.4 4.9 5.8 6.5 6.5 6.5 6.5 6.5 6.5 6.5 6.5 6.5 6.5 6.5 6.5 6.5 6.5 6.7 6.6 6.5 6.6 6.8 7.1 7.0
6.1 5.9 6.0 6.0 6.1 6.3 6.6 7.7 8.1 8.5 8.1 7.7 7.5 8.9 9.4 9.5 9.5 7.8 4.7 5.8 6.1 4.9 4.6 5.3 5.6 5.8 6.1 6.3 6.9 2.7 3.3 5.1 5.8 6.5 6.5 6.5 6.5 6.5 6.5 6.5 6.5 6.5 6.5 6.5 6.5 6.5 6.5 7.1 6.8 7.3 7.3 6.8 7.0 6.9
6.0 6.0 6.0 6.0 6.2 6.4 7.0 7.5 8.4 8.0 7.6 7.4 7.6 9.3 9.4 9.4 9.5 8.0 4.4 4.1 3.5 2.0 2.9 3.1 4.1 7.2 6.7 6.6 5.5 3.7 3.5 3.8 6.1 6.6 6.5 6.5 6.5 6.5 6.5 6.5 6.5 6.5 6.3 6.5 6.5 6.5 6.5 6.8 7.0 7.0 7.1 7.1 7.2 7.2
6.0 5.9 6.0 6.1 6.2 6.6 6.9 6.9 7.3 7.3 7.0 7.0 7.7 8.5 8.3 8.6 9.3 7.2 4.8 4.5 4.0 6.4 4.0 3.6 5.6 6.7 7.3 6.0 6.0 5.7 4.5 5.2 5.8 5.9 6.4 6.5 6.5 5.5 6.5 6.5 6.5 6.1 6.5 6.5 6.5 6.4 6.4 6.3 6.7 7.0 6.7 7.0 7.1 7.0
6.0 5.9 5.9 6.0 6.2 6.6 6.7 6.7 6.9 6.7 6.6 6.7 7.0 7.0 7.2 7.4 8.2 6.7 5.7 6.6 6.3 4.1 4.4 4.3 4.2 5.3 6.2 5.5 4.9 3.1 2.0 4.0 4.5 6.1 6.5 6.5 6.1 6.3 6.6 6.2 6.5 4.8 6.5 6.5 6.5 6.4 6.8 6.5 6.8 5.8 7.0 7.1 7.2 7.1
5.8 5.7 5.8 6.0 6.4 6.8 6.8 6.6 6.4 6.5 6.5 6.6 6.6 6.6 6.6 7.4 7.2 5.7 6.0 6.1 7.0 4.9 6.6 6.4 3.8 3.0 6.0 4.6 2.2 2.5 0.5 -0.8 1.7 4.7 6.4 5.8 5.5 6.4 6.5 6.5 3.1 3.5 5.5 6.6 6.5 6.9 5.7 4.5 5.5 7.2 7.1 7.1 7.1 6.9
5.7 5.9 6.0 6.2 6.6 6.9 6.7 6.4 6.3 6.4 6.4 6.4 6.4 6.1 6.7 7.7 6.2 7.8 7.1 7.2 7.2 5.7 6.1 4.6 5.2 4.2 2.5 2.1 1.8 2.4 1.4 1.6 1.9 0.0 2.6 2.9 4.3 5.7 6.5 6.5 3.6 5.0 4.1 3.7 4.6 5.5 5.4 6.3 6.8 6.9 7.1 7.0 7.0 6.6
5.9 6.1 6.1 6.3 6.6 7.0 6.8 6.4 6.3 6.3 6.2 6.2 5.7 6.4 8.0 8.1 7.1 6.2 6.8 7.7 6.8 7.6 5.7 6.6 6.3 3.8 3.9 2.9 2.8 2.8 6.2 3.4 2.3 0.1 0.5 1.2 3.9 5.1 6.5 4.1 3.0 2.6 4.0 3.3 5.0 5.8 6.2 6.3 6.5 6.4 6.5 6.5 6.5 6.5
6.0 5.9 6.2 6.3 6.6 6.9 6.4 6.3 6.2 6.0 5.9 5.4 6.1 7.1 6.1 4.4 6.0 5.9 7.1 6.6 5.3 3.8 2.3 1.8 6.5 6.5 4.2 3.6 1.8 3.5 6.1 6.3 4.2 4.0 2.3 5.3 6.5 6.5 6.0 5.9 4.3 5.6 5.3 5.5 5.4 5.1 5.1 6.1 6.4 6.3 6.4 6.5 6.5 6.3
6.2 6.1 6.2 6.4 6.6 6.5 6.4 6.2 5.9 5.7 5.6 5.5 4.2 2.3 4.2 2.5 6.2 6.1 2.5 2.1 1.7 0.5 0.7 2.4 4.6 6.5 3.6 4.5 5.1 4.5 4.6 6.5 6.5 6.0 4.8 6.5 6.5 6.3 6.5 6.3 6.1 5.6 5.7 5.7 4.9 5.0 5.9 6.2 6.4 6.3 6.3 6.3 6.3 6.3
6.0 6.2 6.4 6.7 6.5 6.5 6.5 5.9 5.5 4.8 4.4 3.1 -0.1 0.4 1.7 4.5 2.2 -1.0 -0.8 2.0 1.0 3.6 4.2 3.8 3.0 6.1 4.6 6.2 6.5 6.1 6.5 6.4 6.5 6.4 6.5 6.5 6.5 6.5 6.8 6.6 6.2 6.0 6.1 5.9 5.8 5.6 5.7 6.1 6.1 5.8 5.8 5.9 5.9 5.8
6.1 6.3 6.6 6.7 7.1 6.9 6.2 5.5 4.5 1.1 -1.0 2.6 2.3 1.9 0.9 -0.8 -1.8 4.5 6.5 3.5 5.9 6.5 5.4 4.0 3.5 3.6 5.2 6.0 5.8 6.2 6.5 6.5 6.5 4.9 6.5 6.5 6.5 6.7 6.6 6.4 6.1 5.9 5.9 5.7 5.2 5.1 5.1 4.9 5.1 5.2 5.3 5.5 5.5 5.5
6.2 6.5 6.6 7.7 7.6 6.8 5.8 4.8 4.4 4.1 3.9 0.9 -1.2 -1.6 0.6 0.2 6.4 6.5 6.5 6.5 6.5 5.4 3.8 3.3 4.7 4.2 6.7 7.0 5.8 6.4 6.5 6.5 6.0 6.5 6.5 6.5 6.1 6.8 6.5 6.1 5.8 5.5 5.6 5.3 5.2 5.0 4.7 4.4 4.4 4.6 4.9 5.0 5.1 5.1
6.6 6.6 8.1 7.9 7.2 6.1 5.3 4.9 4.8 3.8 0.7 -2.0 -1.5 6.5 6.2 6.5 6.5 6.4 6.4 6.1 3.3 1.9 3.9 3.3 5.5 6.2 6.9 6.5 6.5 6.5 6.5 6.4 6.5 6.5 6.5 6.6 5.6 6.5 6.4 5.9 5.4 5.3 5.4 5.6 5.4 5.2 4.9 4.6 4.5 4.6 4.6 5.0 4.9 4.8
7.0 8.3 8.0 7.5 6.4 5.4 5.1 5.0 4.1 1.7 -1.3 -1.9 -1.0 6.5 6.5 1.9 -1.9 -0.7 -0.1 2.2 4.2 5.2 6.1 6.6 6.4 6.7 6.5 6.5 6.5 6.5 6.5 6.5 6.5 6.5 6.5 5.0 5.7 6.3 6.3 5.7 5.4 5.5 5.3 5.4 5.8 5.3 5.1 5.1 4.7 4.6 4.6 4.3 4.4 4.6
8.4 7.5 6.7 6.5 5.4 5.3 5.2 3.7 1.9 -1.0 -4.1 -1.9 -1.5 3.5 2.0 2.0 0.8 0.2 1.3 3.3 5.2 5.9 6.8 7.1 5.4 6.5 6.5 6.5 6.5 6.5 6.5 6.5 6.5 6.4 6.4 5.9 6.3 6.2 6.0 6.1 6.2 5.9 5.6 5.4 5.3 5.5 5.3 4.7 4.7 5.1 4.5 4.2 4.1 4.3
7.4 5.5 6.5 5.8 5.6 5.1 4.3 -0.6 -3.0 -4.4 -1.9 -1.6 1.1 0.1 1.1 0.6 2.2 2.8 6.5 6.3 5.9 6.0 6.4 6.2 6.5 6.5 6.3 6.5 6.5 6.5 6.5 6.5 6.6 6.4 6.6 6.5 6.1 5.6 5.3 5.9 6.2 5.9 5.4 5.0 4.9 5.0 4.8 4.9 5.0 4.8 4.4 4.5 4.2 4.0
4.1 5.3 5.6 5.6 4.3 3.0 -0.5 -3.9 -3.8 -3.2 -0.5 -2.6 1.1 0.9 3.0 4.0 4.1 4.9 5.3 5.8 6.1 6.9 7.0 6.5 6.3 6.5 6.5 6.5 6.5 6.4 6.5 6.5 6.4 6.6 6.5 6.1 5.7 5.7 5.7 5.4 5.4 5.6 5.4 4.9 4.6 4.6 4.1 3.9 4.3 5.2 4.7 4.1 4.4 4.0
3.3 4.2 5.1 5.3 3.2 -1.9 -1.9 -1.4 -3.0 -1.2 0.9 0.1 0.3 1.7 3.7 4.9 5.5 3.8 5.3 6.4 7.2 7.8 5.5 3.2 6.4 6.5 6.5 6.6 6.4 5.8 6.4 6.6 6.2 6.0 5.4 4.9 4.9 4.8 5.0 5.2 5.4 5.2 4.6 4.7 4.3 3.8 4.1 3.9 4.0 4.6 4.9 4.0 3.6 4.4
4.8 4.5 3.9 4.3 2.6 -3.1 -1.6 -2.2 -4.4 -1.1 0.4 2.4 1.8 1.5 2.2 3.3 4.3 4.5 5.4 6.9 7.2 5.3 3.3 6.0 5.2 5.3 5.3 5.8 5.8 6.3 6.4 5.7 5.4 5.8 5.8 5.0 4.3 4.0 4.2 3.9 3.9 4.4 4.0 4.0 4.7 5.4 4.4 4.4 3.9 3.7 5.0 5.0 3.3 3.6
3.9 4.0 3.2 1.3 -5.5 -6.0 -5.7 -7.2 -3.0 -3.2 0.6 1.1 0.4 2.3 2.3 1.8 1.3 1.3 2.2 6.5 2.1 0.4 2.9 3.5 3.5 3.7 4.8 5.8 6.1 6.9 6.3 5.9 5.4 5.5 4.4 4.2 4.1 3.7 3.2 3.0 3.3 3.4 2.6 2.7 2.7 3.6 4.0 3.7 3.3 3.3 2.9 3.4 3.3 3.2
2.5 3.1 -2.2 -1.4 -4.4 -5.5 -3.9 -6.6 -2.6 -2.2 0.3 0.5 1.0 0.5 0.6 2.1 1.2 1.3 1.9 -0.5 -1.9 1.7 2.1 3.5 5.1 6.0 5.9 5.3 5.2 5.6 5.6 5.4 5.3 5.4 5.5 4.4 3.5 3.7 3.5 3.3 2.8 1.5 2.0 2.1 2.4 2.3 2.5 3.4 2.8 2.2 2.3 1.9 2.4 2.0
2.5 0.9 -4.2 -5.0 -0.8 -1.7 0.4 -5.3 -0.6 -3.2 1.9 0.9 -1.5 2.9 2.1 2.1 2.1 4.0 1.7 0.2 1.8 1.8 4.8 6.1 5.8 5.6 5.5 4.9 5.2 4.6 4.6 4.3 3.6 3.2 3.0 2.5 2.6 3.1 2.8 2.6 2.4 1.1 1.2 1.6 1.8 1.6 1.2 3.7 2.9 1.3 1.0 0.7 0.2 -0.2
-0.9 -5.0 -3.8 -3.5 -3.7 1.7 -3.1 -2.5 -1.8 -1.8 -2.7 0.0 4.7 6.5 5.2 2.0 2.5 2.9 6.5 2.7 3.0 5.8 6.3 6.0 5.9 5.6 5.3 5.1 4.6 4.0 3.7 3.7 2.7 2.5 2.4 2.4 2.1 1.7 2.5 2.2 2.0 1.5 1.5 1.2 1.0 1.0 0.9 0.5 1.4 0.3 0.2 -0.6 -1.4 -2.1
0.8 0.9 -1.5 1.1 -4.0 -0.0 5.0 3.5 0.7 3.0 6.5 5.2 6.5 6.5 2.5 2.2 6.5 6.5 6.5 2.8 5.6 6.2 6.2 6.1 6.1 6.4 5.1 4.1 3.9 3.5 3.3 3.8 3.2 2.1 1.4 1.8 0.7 0.7 1.8 1.7 1.5 1.1 0.8 -0.2 0.7 0.9 0.4 -0.5 -0.8 -1.1 -0.4 0.1 -1.3 -3.5
6.5 -0.0 2.1 0.0 0.8 5.0 5.5 6.5 6.5 6.7 6.5 6.5 5.9 -0.3 -2.6 3.8 6.5 6.5 5.2 1.9 3.7 5.2 5.6 5.6 5.9 5.6 5.1 4.8 3.8 3.3 3.1 2.3 2.3 1.8 1.3 1.5 1.8 2.0 1.7 1.8 1.0 1.3 1.2 0.1 -1.8 -1.2 -0.9 -0.7 -1.7 -2.3 -2.1 -2.3 0.7 -4.8
6.5 4.6 1.7 4.1 3.0 2.9 4.0 3.7 3.8 3.3 6.5 6.5 5.5 4.7 6.5 6.5 6.5 4.2 1.6 2.0 2.5 2.8 4.3 5.2 5.2 5.0 4.5 3.7 2.9 2.1 1.2 0.8 1.2 1.4 1.0 0.4 0.3 -0.3 0.3 0.2 0.5 1.1 0.2 -1.1 -1.9 -2.0 -1.7 -1.1 -1.9 -2.7 -3.4 -4.3 -4.4 -4.7
1.4 2.3 6.0 1.3 2.0 0.8 3.0 3.5 5.8 6.5 4.8 3.2 4.0 6.5 6.5 6.5 6.5 1.2 0.6 -0.8 -2.0 -0.3 1.2 1.4 1.9 3.0 2.9 2.3 1.7 0.5 -1.0 -1.6 -1.0 -0.7 -0.2 -0.8 -2.1 -2.0 -1.7 -1.3 -0.3 2.5 -0.4 -1.2 -1.1 -2.0 -2.2 -1.0 -2.0 -2.0 -2.8 -3.5 -3.9 -4.4
1.0 2.1 2.1 0.7 -0.9 -0.6 0.2 2.3 2.0 1.9 2.9 2.3 4.0 6.3 1.7 1.3 -1.9 -1.9 -0.7 -1.5 -1.9 -0.1 0.0 0.3 -0.6 -0.8 -0.8 -0.9 -1.3 -2.0 -1.0 -0.1 0.7 0.4 0.8 0.9 0.5 0.2 -3.0 -2.9 -2.8 -2.3 -2.4 -2.8 1.8 2.7 0.5 -1.2 -2.8 -3.3 -4.5 -5.1 -4.9 -6.6
1.4 -0.3 -0.0 -2.5 3.2 6.7 0.8 -0.1 -0.3 -2.5 -0.3 -0.1 -0.1 -0.2 -0.0 -1.4 -2.8 -3.9 -3.1 -3.3 -1.1 -0.2 0.3 0.3 0.3 0.2 0.1 0.2 -1.1 -1.9 -3.1 -2.1 -1.8 0.7 1.8 1.7 1.5 -0.2 -1.6 -2.1 -2.8 -3.0 -2.8 -3.9 -3.7 -3.4 1.4 -2.5 -2.9 -6.3 -7.4 -7.8 -7.5 -7.8
0.0 -1.7 -0.5 -0.8 0.6 -1.4 -2.8 -3.9 -4.4 -1.1 -3.2 -4.0 -4.8 -1.4 0.1 -2.3 -2.6 -4.5 -4.2 -4.7 -4.7 -2.3 0.3 0.8 0.4 0.3 0.7 0.6 0.4 0.8 0.4 -1.2 -1.6 -1.1 -1.6 -2.3 -1.4 -1.0 -1.6 -2.1 -1.5 -1.9 -2.7 -3.6 -4.2 -4.4 -4.6 -5.3 -7.1 -7.6 -8.1 -8.5 -8.9 -8.1
-0.6 -2.0 -0.2 5.9 1.7 -2.1 -3.4 -2.4 -3.7 -2.0 -3.0 -2.2 -1.8 -4.0 -2.6 -1.9 -1.2 -2.5 -5.6 -6.2 -3.9 -1.0 1.2 1.4 1.3 1.7 1.3 1.0 1.3 0.9 3.0 -0.0 -0.2 -0.6 -0.3 -0.6 -1.1 -0.8 -0.5 -0.6 -1.2 -1.9 -2.7 -3.0 -4.3 -5.2 -6.4 -6.8 -7.6 -7.6 -7.4 -8.3 -9.4 -9.9
-2.5 -2.9 -2.4 -1.0 1.3 1.4 0.0 -0.1 -0.3 0.4 0.0 -1.2 -0.9 -0.6 -2.2 -0.4 0.8 -1.7 -5.9 -6.1 -4.4 -2.6 -0.0 0.5 1.7 1.7 1.3 1.6 1.4 0.9 1.5 -0.7 0.0 1.7 2.3 2.5 2.5 2.3 0.7 0.1 -0.8 -1.5 -2.3 -3.1 -4.6 -5.9 -6.8 -7.7 -7.9 -8.4 -8.9 -9.4 -9.9 -10.3
Wind_Speed
20 17 13 10 6 4 4 6 6 7 8 9 10 11 12 11 12 4 3 1 3 2 5 4 3 1 3 1 1 4 4 4 3 4 1 2 1 3 3 4 5 4 6 4 5 5 5 21 7 8 7 11 16 18
20 16 13 9 6 4 4 5 7 8 9 9 10 13 12 12 11 4 0 1 1 2 5 2 5 6 6 6 3 2 4 2 3 1 1 2 2 1 2 3 4 4 1 3 3 3 5 14 2 8 11 13 12 15
19 16 12 9 6 4 4 6 7 8 9 9 12 13 12 12 10 3 2 0 3 2 4 3 2 1 1 3 4 2 2 3 3 2 2 2 3 2 0 2 3 6 6 2 7 1 14 13 6 14 14 14 15 11
19 15 12 8 5 3 3 5 8 9 9 11 13 13 12 12 8 6 2 1 3 0 1 5 2 3 1 1 4 3 2 5 3 2 3 2 2 1 1 4 3 2 6 6 5 5 14 5 15 16 18 14 11 10
18 15 11 8 5 3 3 4 7 7 10 11 13 12 12 9 3 8 4 3 4 3 2 3 6 3 2 3 5 1 2 1 1 2 2 2 2 3 3 3 2 2 3 2 4 11 9 14 15 21 14 12 12 10
18 15 11 8 5 3 1 3 5 10 9 12 12 12 8 0 10 3 0 2 2 2 1 3 3 3 3 4 3 3 1 2 2 2 2 2 2 1 2 2 4 4 5 10 5 10 16 20 17 10 11 11 10 10
18 15 11 7 4 2 1 3 6 10 11 11 11 7 2 6 4 0 1 0 2 2 1 3 4 3 2 2 3 2 2 1 3 1 2 1 2 3 2 2 7 12 11 13 10 10 8 5 6 9 9 9 9 8
17 14 10 7 2 1 2 4 8 10 11 10 4 2 6 10 8 2 3 7 2 1 2 1 3 4 4 3 2 1 1 2 4 2 2 2 2 2 1 6 8 7 11 7 11 9 6 7 7 9 8 8 10 9
15 12 8 5 2 1 2 6 8 9 9 1 6 8 6 4 1 0 9 6 7 3 2 2 2 3 5 2 2 3 0 2 1 2 1 2 3 3 5 10 8 11 6 10 9 6 7 7 8 9 8 9 10 10
14 10 7 4 1 2 5 6 7 7 1 7 4 3 1 2 7 3 6 3 4 4 3 1 0 2 2 2 3 2 1 2 2 2 2 3 1 4 5 7 6 8 8 9 5 7 6 8 8 9 9 9 9 9
13 10 7 3 5 3 4 6 6 3 5 2 2 2 2 6 3 3 3 3 3 4 2 2 1 1 2 1 2 1 1 1 2 2 3 2 3 5 9 9 9 9 9 8 7 7 8 6 6 8 10 11 11 11
12 10 6 8 4 2 4 4 5 4 2 3 4 3 3 4 3 6 1 3 3 1 3 1 3 2 3 2 1 2 0 3 1 0 3 2 2 7 7 9 10 10 10 10 10 9 9 11 9 10 10 10 10 10
12 9 6 9 4 2 2 5 9 13 8 3 4 5 4 4 8 4 3 4 3 3 2 3 3 2 2 3 1 2 3 1 1 3 1 2 3 4 6 6 8 10 11 11 11 10 10 12 12 11 9 9 10 11
10 8 8 8 5 4 5 6 7 5 4 4 4 5 3 4 1 3 4 3 4 1 3 2 2 2 2 2 1 2 1 2 3 2 1 1 2 4 4 6 8 9 10 10 9 9 10 11 10 10 11 9 9 11
10 9 12 7 6 6 8 8 6 4 3 3 4 2 1 3 1 3 2 1 2 2 2 2 3 2 2 2 1 2 3 2 1 2 2 1 1 2 4 7 8 8 7 8 9 9 11 11 10 10 10 9 10 10
11 12 3 6 6 9 9 6 4 2 3 3 5 3 1 3 3 3 1 2 1 1 2 2 1 2 2 1 3 0 2 1 2 1 2 2 2 3 6 7 7 7 7 7 8 8 8 9 9 8 9 9 9 9
10 2 6 9 12 11 6 3 3 5 4 4 0 0 3 2 3 2 2 2 2 1 2 0 2 2 2 2 1 2 1 2 4 3 3 4 4 5 5 6 7 7 7 7 7 7 7 8 7 7 9 8 8 8
3 5 8 11 8 4 2 3 4 4 4 2 3 2 1 2 2 1 2 1 1 2 2 0 1 2 1 1 1 1 2 4 4 4 4 3 3 4 6 7 6 6 6 7 6 6 7 8 7 6 6 6 6 7
7 7 7 11 5 4 3 4 3 3 2 1 1 1 2 2 1 1 1 1 1 2 1 2 3 1 1 1 0 2 3 3 3 3 2 3 3 3 5 6 6 6 6 5 5 5 4 6 4 4 4 5 5 5
16 13 12 9 5 3 4 3 2 4 2 2 2 1 2 2 2 1 2 2 1 1 2 1 3 1 1 2 2 2 3 5 5 5 3 3 2 3 5 5 4 5 4 5 5 9 4 4 5 5 4 6 5 5
7 3 8 6 3 5 4 1 3 2 1 2 1 2 1 1 2 1 1 1 3 1 1 2 2 2 2 2 1 3 5 4 3 2 3 3 3 3 3 3 4 4 4 3 3 4 6 4 3 3 4 4 4 4
2 6 3 5 4 4 4 2 3 1 2 1 2 1 1 1 1 2 1 3 2 3 3 2 1 1 1 2 2 3 3 4 4 5 8 8 3 3 3 3 3 3 3 3 2 3 3 3 3 4 4 4 5 3
6 4 4 4 5 5 2 2 3 4 3 2 2 3 2 1 2 1 1 3 3 3 2 1 1 2 3 1 3 4 5 5 4 4 4 4 4 4 3 3 3 2 2 3 3 3 3 7 5 4 4 5 4 4
9 4 4 3 4 1 1 4 2 3 3 3 3 2 2 2 2 2 2 2 2 2 2 4 3 3 3 2 2 2 2 3 4 4 3 4 4 3 3 3 3 3 3 2 2 3 3 3 6 4 4 3 4 3
6 5 5 4 3 4 4 4 4 4 0 1 1 3 2 2 0 1 2 2 3 2 3 4 4 2 2 2 2 1 2 2 4 3 1 2 3 2 3 2 3 3 2 3 2 2 2 3 3 4 4 3 3 4
5 4 3 3 2 3 3 2 2 4 2 1 4 2 2 2 1 4 3 3 2 3 4 4 3 3 3 2 3 3 2 2 3 2 1 2 3 3 3 3 2 1 1 2 2 0 2 2 1 3 1 4 7 4
3 2 1 1 2 3 2 2 2 2 2 3 2 1 2 1 4 3 1 1 2 2 3 3 3 3 3 3 2 3 2 2 2 2 3 2 2 1 2 3 3 2 1 2 1 2 2 2 2 3 3 2 1 1
3 2 4 2 2 2 3 1 3 5 3 2 2 1 5 6 3 2 3 2 2 1 3 3 2 2 3 3 4 4 3 2 4 4 3 2 2 1 2 2 1 1 3 3 3 3 2 2 3 2 1 1 2 1
2 1 3 3 2 1 4 5 4 2 1 2 3 3 3 2 2 2 2 2 2 3 3 3 2 2 4 3 3 2 4 5 6 4 4 2 1 2 2 3 1 0 0 1 3 3 3 3 3 2 1 1 1 1
1 1 3 2 4 4 3 2 2 2 0 1 1 2 2 2 2 1 2 2 3 4 3 2 4 3 4 4 3 1 2 3 2 2 3 3 4 3 4 3 2 3 3 2 1 2 3 4 4 3 3 3 3 2
1 2 3 1 3 2 2 2 2 2 2 1 1 2 3 3 3 2 3 3 3 2 3 3 3 3 4 4 3 3 3 4 6 5 3 1 3 4 3 5 6 6 5 3 2 2 1 2 1 2 2 3 4 3
2 2 3 0 2 3 2 2 1 0 2 2 2 1 3 3 3 2 1 3 3 3 8 6 4 4 5 2 3 2 1 2 6 5 7 3 3 7 8 7 6 6 4 3 2 2 2 2 1 1 1 2 3 3
2 1 1 1 3 3 2 2 3 4 1 1 2 2 2 2 5 2 1 1 3 3 4 2 2 2 3 5 4 2 3 2 7 11 11 9 10 10 9 8 8 7 4 3 3 3 3 2 1 2 3 3 4 4
Wind_Direction
183 181 183 189 199 220 269 293 316 317 320 324 325 323 322 331 329 113 264 312 136 221 273 233 227 144 324 110 246 277 13 347 -0 31 52 282 50 280 360 315 350 28 334 347 341 354 358 8 0 32 306 307 317 327
181 180 183 187 198 230 267 294 303 314 319 319 322 318 322 326 323 124 211 316 336 161 243 274 250 229 199 210 271 338 198 184 250 264 228 230 294 14 146 301 25 32 344 293 28 297 351 344 68 339 330 317 319 319
179 180 182 185 198 234 278 289 303 314 319 317 316 316 322 321 322 164 166 248 58 39 306 354 273 280 155 191 172 133 296 227 268 70 318 240 233 135 154 271 62 334 7 8 333 104 334 316 328 342 334 321 317 323
177 177 179 184 203 226 277 308 306 316 321 314 315 317 318 317 316 145 128 147 102 73 152 283 325 278 243 286 227 198 214 338 276 191 220 221 197 95 206 112 98 270 325 320 275 302 325 61 326 319 321 315 328 335
174 175 175 182 185 231 281 317 324 324 317 317 315 318 319 315 147 118 123 195 150 129 226 280 310 276 276 323 287 98 127 342 305 345 329 36 14 6 75 78 47 314 318 325 279 309 295 284 305 313 320 337 339 338
173 173 178 173 196 242 312 343 324 324 320 321 318 324 325 234 139 87 50 341 320 139 324 322 286 319 321 325 358 4 74 93 86 79 5 17 289 273 70 97 236 230 261 263 268 290 286 280 288 320 334 345 345 1
171 176 171 179 202 297 14 334 327 324 323 322 323 330 318 141 125 138 228 99 158 100 162 324 323 306 336 334 329 7 14 78 107 133 31 94 3 41 65 18 297 314 298 296 281 283 280 280 324 344 352 351 7 21
173 169 173 187 207 33 348 333 329 325 328 327 341 103 125 119 98 57 11 1 79 162 61 60 284 353 7 318 344 343 152 36 10 160 12 48 349 35 61 262 286 281 300 305 323 316 315 326 6 13 17 21 36 31
164 166 180 194 225 341 357 335 328 330 333 50 125 89 65 40 88 286 323 70 63 120 133 86 105 276 347 317 254 331 350 56 273 76 351 83 337 27 282 318 312 319 308 297 308 324 356 16 18 18 24 34 46 40
160 165 176 185 184 85 356 337 334 338 84 125 61 61 64 298 313 355 16 21 13 339 30 96 312 280 36 350 311 346 344 106 75 263 111 80 163 270 308 319 316 326 332 342 355 3 351 20 18 28 32 36 41 42
165 168 166 168 131 44 350 345 343 28 84 46 72 137 244 349 54 30 35 68 332 11 8 304 149 277 318 353 295 273 296 38 67 272 103 27 341 344 339 346 354 355 358 6 11 21 23 27 32 42 40 40 45 44
170 171 173 153 118 32 4 7 24 71 157 148 129 87 37 35 36 78 310 331 55 292 332 14 281 226 291 262 310 311 30 39 176 174 73 15 294 337 342 353 1 4 6 20 22 27 29 37 32 42 42 40 40 42
167 164 142 151 112 69 55 88 89 119 121 49 49 54 46 318 42 75 328 317 340 338 330 330 324 273 280 243 272 19 57 223 4 51 102 210 301 330 352 2 9 12 16 23 26 24 34 41 37 33 39 35 38 43
159 152 143 138 117 103 116 121 131 119 74 70 77 29 78 345 237 189 191 209 253 189 300 258 262 264 296 292 29 51 245 64 54 70 191 252 297 333 6 19 25 14 12 21 24 29 37 41 39 34 37 37 43 44
153 145 129 106 113 117 124 121 122 67 80 86 69 77 72 213 260 229 226 322 265 250 310 306 286 240 278 346 46 351 25 59 58 193 134 175 350 -0 39 37 31 22 15 19 25 35 41 43 43 39 32 38 43 44
145 116 103 117 117 140 135 109 48 72 52 78 57 74 259 64 306 337 281 261 271 303 278 236 288 3 307 346 43 48 127 173 196 119 111 109 73 54 60 49 45 33 31 35 29 35 38 41 39 42 41 40 42 43
121 107 142 127 117 116 83 78 56 46 107 63 345 177 122 136 199 225 246 274 299 316 274 187 59 229 321 39 37 345 76 98 123 96 76 82 88 77 65 59 49 46 43 42 35 30 37 40 44 46 47 35 42 40
91 146 139 151 143 88 45 45 82 74 64 225 104 236 190 158 159 303 284 296 351 317 324 215 1 44 149 183 193 143 85 83 78 94 100 90 65 88 88 81 63 52 53 47 36 34 35 37 39 37 31 18 48 36
139 118 129 150 123 99 80 19 57 102 196 207 244 62 119 109 86 190 249 284 249 299 41 28 74 180 249 354 59 127 138 137 138 111 89 53 48 71 89 89 83 69 54 36 46 38 38 32 23 15 32 32 44 41
106 92 92 98 61 79 61 6 50 95 140 218 67 64 136 158 181 90 356 7 27 46 34 84 205 224 246 305 290 135 134 133 136 133 118 94 63 61 72 81 77 73 57 34 49 63 31 35 22 12 34 41 36 27
90 78 61 62 47 61 85 29 36 157 183 114 283 105 235 16 54 29 316 12 55 167 243 229 227 251 274 309 352 143 143 151 167 176 147 134 96 81 72 59 71 71 62 46 37 18 42 45 19 10 16 24 27 21
97 73 71 31 75 34 76 315 137 233 75 147 41 27 78 45 297 272 211 57 215 235 198 193 235 189 100 34 18 30 95 100 97 116 116 121 123 112 88 80 87 73 62 47 34 25 14 17 58 27 28 29 24 -0
88 54 46 41 74 47 276 28 70 2 92 269 4 37 338 323 237 1 349 214 240 220 202 145 99 88 110 74 81 59 57 93 93 90 101 93 88 92 93 81 82 85 86 51 33 28 15 32 29 43 24 34 32 32
50 53 60 62 63 176 -0 17 28 50 40 41 64 310 275 239 323 74 242 241 235 161 165 155 146 118 98 88 71 66 63 92 97 82 78 112 106 79 85 83 67 53 52 55 26 13 12 13 34 17 20 37 32 37
73 340 73 3 328 70 48 19 358 50 184 219 108 299 267 344 180 234 227 251 168 165 163 166 180 171 131 100 119 112 57 122 134 129 33 109 111 87 86 68 58 43 36 56 23 15 16 18 22 16 2 3 83 26
79 302 86 195 295 102 171 108 195 206 164 247 230 266 20 92 68 244 236 194 169 162 174 178 162 140 155 163 153 168 165 122 117 106 144 154 165 155 163 168 174 200 157 149 185 289 356 354 11 8 -0 4 22 46
97 256 318 6 104 103 68 45 49 121 168 202 235 47 73 103 252 250 259 241 171 193 142 153 164 165 161 148 118 107 105 100 116 162 122 110 103 129 150 164 182 191 152 149 178 196 250 318 327 333 332 337 272 237
140 179 141 230 71 51 139 134 174 199 216 205 105 216 180 196 237 231 202 235 188 76 89 76 64 109 129 141 130 124 88 79 81 74 70 46 41 54 96 105 130 178 165 242 228 241 227 259 264 267 253 287 297 304
79 46 100 59 33 37 208 189 211 225 165 143 167 230 242 235 232 201 224 186 134 115 118 127 80 85 79 78 83 98 139 156 148 149 190 207 201 249 191 195 189 174 138 22 337 296 212 172 179 167 181 229 292 324
309 21 88 86 156 225 246 174 216 249 236 184 264 318 292 276 251 195 127 121 156 186 181 155 150 158 159 161 165 212 224 204 191 161 175 196 210 149 158 173 188 191 174 154 98 346 54 49 45 38 35 25 22 19
47 65 65 96 213 247 242 306 337 16 27 344 331 174 257 299 301 246 184 177 160 145 145 163 173 186 170 182 179 173 223 208 211 218 220 183 135 147 164 183 189 180 171 149 126 106 71 64 66 64 49 20 344 23
29 109 135 15 292 298 17 56 359 357 323 9 291 328 318 350 280 277 255 117 131 172 206 183 178 202 203 180 176 209 301 147 173 186 191 170 184 191 190 190 186 180 167 160 145 143 140 155 180 205 247 287 295 301
44 52 53 66 11 358 336 59 17 330 334 300 270 214 227 215 247 270 311 198 183 177 191 191 169 153 178 188 182 184 171 174 188 184 191 199 206 212 215 213 194 182 172 174 176 166 178 182 244 247 258 261 274 281